SL-8 DEB, 25028

Orbit data source: Space-Track

SL-8 DEB, 25028 is space debris in LEO originally from a launch on Wed, 16 Jun 1993 UTC launched from the Plesetsk Missile And Space Complex (PKMTR). Debris objects in space refer to the collection of defunct objects orbiting the Earth. Examples of debris include non-operational satellites, rocket bodies, and fragments generated from explosions, collisions, or faulty payload assembly.

Loading next visibility...
Identifier
25028, 1993-036D
Orbit
LEO
Country
Flag of CISCIS
Related business
Manufacturer
Unknown
Mission
Spacecraft
Bus & Motor
Unknown
Mass
Unknown
Launch date (UTC)
1993-06-16 (33 years ago)
Launch vehicle
Unknown
Launch site
Plesetsk Missile And Space Complex (PKMTR)
Object type
Payload
Rocket body
Debris
Shape & HBR
Unknown shape, 0.1 m
Radar Cross Section
Medium (>0.1 m² and <1 m²)

Expand to show TLE details & history
Last TLE update: 13 hours ago

TLE from 13 hours ago
0 SL-8 DEB
1 25028U 93036D   26168.52878953  .00000731  00000-0  23085-3 0  9990
2 25028  74.0414 307.2069 0009137 150.5491 328.2153 14.42002608603944
Epoch: 2026-06-17T12:41Z
TLE epoch observation values (Epoch: 2026-06-17T12:41:27.415Z)
Latitude
57.59462°
Longitude
4.43521°
Altitude
755.685 km
Speed
7.485 km/s
True Right ascension
06h 42m 20s
True Declination
57° 26' 20"
Sunlit
Object was in daylight at epoch
Visualization orbit readout
Latitude
Unknown
Longitude
Unknown
Altitude
Unknown
Speed
Unknown
Apparent Right ascension
Unknown
Apparent Declination
Unknown
Sunlit
N/A
Visualization observer readout
Local Sidereal Time
12:43:51
Azimuth
Unknown
Elevation
Unknown
Doppler factor
Unknown
Orbital elements
Apogee altitude
756.019 km
Perigee altitude
742.994 km
Semi-major axis
7,127.643 km
Eccentricity
0.00091
Inclination
74.0414°
RAAN
307.2069°
Arg. of periapsis
150.5491°
True anomaly
328.1601°
Mean anomaly
328.2153°
Eccentric anomaly
328.1877°
Mean motion
3.60682 °/min
Orbital period
99.81 mins
BSTAR
0.00023085

Documentation

Showing up to 5 results
|